ETD694 OMAA-OOMS

Flight info

Callsign ETD694
Flight time 1h 1m
Altitude 21000
Route ORNEL N685 LAKLU G216 MCT
Aircraft A35K/H-SDE2E3GHIJ3J4J5LM1ORWXY/LB1D1

Departure

Time 2026-05-07 15:55
Airport Zayed International Airport (OMAA)

Arrival

Time 2026-05-07 16:56
Airport Muscat International Airport (OOMS)
Time Latitude Longitude Altitude Speed Heading
2026-05-07 15:37 24.44602 54.64552 83 ft 0 kts 232°
2026-05-07 15:47 24.44606 54.64558 87 ft 3 kts 232°
2026-05-07 15:47 24.44617 54.64574 87 ft 3 kts 232°
2026-05-07 15:48 24.44629 54.64590 84 ft 3 kts 218°
2026-05-07 15:48 24.44644 54.64602 86 ft 3 kts 217°
2026-05-07 15:48 24.44661 54.64613 86 ft 3 kts 186°
2026-05-07 15:48 24.44666 54.64614 86 ft 0 kts 176°
2026-05-07 15:50 24.44664 54.64615 86 ft 1 kts 169°
2026-05-07 15:50 24.44645 54.64637 85 ft 7 kts 131°
2026-05-07 15:50 24.44596 54.64703 87 ft 13 kts 130°
2026-05-07 15:50 24.44511 54.64699 87 ft 16 kts 212°
2026-05-07 15:51 24.44399 54.64605 87 ft 22 kts 218°
2026-05-07 15:51 24.44283 54.64495 87 ft 20 kts 238°
2026-05-07 15:51 24.44209 54.64369 87 ft 21 kts 217°
2026-05-07 15:51 24.44102 54.64323 85 ft 14 kts 158°
2026-05-07 15:52 24.44016 54.64424 88 ft 26 kts 128°
2026-05-07 15:52 24.43887 54.64606 87 ft 32 kts 128°
2026-05-07 15:52 24.43746 54.64805 86 ft 34 kts 128°
2026-05-07 15:52 24.43597 54.65014 86 ft 36 kts 128°
2026-05-07 15:53 24.43440 54.65236 88 ft 38 kts 128°
2026-05-07 15:53 24.43276 54.65467 87 ft 39 kts 128°
2026-05-07 15:53 24.43104 54.65708 86 ft 41 kts 128°
2026-05-07 15:53 24.42938 54.65940 84 ft 39 kts 128°
2026-05-07 15:54 24.42818 54.66108 86 ft 20 kts 127°
2026-05-07 15:54 24.42749 54.66197 88 ft 11 kts 153°
2026-05-07 15:54 24.42674 54.66169 87 ft 13 kts 214°
2026-05-07 15:54 24.42614 54.66107 89 ft 9 kts 251°
2026-05-07 15:55 24.42651 54.66040 88 ft 23 kts 309°
2026-05-07 15:55 24.42922 54.65658 86 ft 102 kts 308°
2026-05-07 15:55 24.43503 54.64839 92 ft 168 kts 308°
2026-05-07 15:55 24.44225 54.63797 821 ft 169 kts 307°
2026-05-07 15:56 24.44951 54.62791 1564 ft 172 kts 309°
2026-05-07 15:56 24.45776 54.61706 1869 ft 194 kts 309°
2026-05-07 15:56 24.46666 54.60481 2144 ft 219 kts 307°
2026-05-07 15:56 24.47654 54.59065 2422 ft 242 kts 306°
2026-05-07 15:57 24.48685 54.57571 3160 ft 247 kts 306°
2026-05-07 15:57 24.49733 54.56045 3937 ft 253 kts 306°
2026-05-07 15:57 24.50813 54.54500 4739 ft 257 kts 307°
2026-05-07 15:57 24.51919 54.52954 5541 ft 258 kts 308°
2026-05-07 15:58 24.53083 54.51422 6217 ft 267 kts 315°
2026-05-07 15:58 24.54634 54.50221 6686 ft 280 kts 337°
2026-05-07 15:58 24.56556 54.49874 7312 ft 286 kts
2026-05-07 15:58 24.58406 54.50659 7966 ft 292 kts 38°
2026-05-07 15:59 24.59704 54.52374 8667 ft 296 kts 62°
2026-05-07 15:59 24.60451 54.54487 9477 ft 300 kts 77°
2026-05-07 15:59 24.60867 54.56752 10174 ft 305 kts 85°
2026-05-07 15:59 24.60887 54.59130 10625 ft 321 kts 99°
2026-05-07 16:00 24.60407 54.61592 10977 ft 338 kts 107°
2026-05-07 16:00 24.59741 54.64136 11332 ft 355 kts 108°
2026-05-07 16:00 24.59010 54.66784 11744 ft 367 kts 108°
2026-05-07 16:00 24.58251 54.69493 12318 ft 374 kts 108°
2026-05-07 16:01 24.57480 54.72227 12997 ft 377 kts 108°
2026-05-07 16:01 24.56699 54.74987 13689 ft 379 kts 108°
2026-05-07 16:01 24.55911 54.77764 14328 ft 381 kts 108°
2026-05-07 16:01 24.55116 54.80559 14899 ft 386 kts 108°
2026-05-07 16:02 24.54313 54.83378 15507 ft 388 kts 108°
2026-05-07 16:02 24.53503 54.86222 16137 ft 392 kts 108°
2026-05-07 16:02 24.52685 54.89089 16679 ft 397 kts 108°
2026-05-07 16:02 24.51855 54.91995 17277 ft 400 kts 108°
2026-05-07 16:03 24.51020 54.94915 17937 ft 402 kts 108°
2026-05-07 16:03 24.50179 54.97854 18429 ft 407 kts 108°
2026-05-07 16:03 24.49322 55.00847 18900 ft 412 kts 108°
2026-05-07 16:03 24.48460 55.03857 19406 ft 416 kts 108°
2026-05-07 16:04 24.47586 55.06904 19917 ft 420 kts 108°
2026-05-07 16:04 24.46703 55.09980 20419 ft 425 kts 108°
2026-05-07 16:04 24.45814 55.13075 20732 ft 426 kts 108°
2026-05-07 16:04 24.44910 55.16216 20813 ft 439 kts 108°
2026-05-07 16:05 24.43977 55.19461 20812 ft 451 kts 108°
2026-05-07 16:05 24.43025 55.22763 20809 ft 455 kts 108°
2026-05-07 16:05 24.42071 55.26075 20810 ft 455 kts 108°
2026-05-07 16:05 24.41115 55.29388 20821 ft 456 kts 108°
2026-05-07 16:06 24.40156 55.32707 20826 ft 456 kts 108°
2026-05-07 16:06 24.39198 55.36020 20830 ft 456 kts 108°
2026-05-07 16:06 24.38238 55.39341 20841 ft 456 kts 108°
2026-05-07 16:06 24.37277 55.42658 20844 ft 456 kts 108°
2026-05-07 16:07 24.36315 55.45977 20848 ft 456 kts 108°
2026-05-07 16:07 24.35355 55.49286 20852 ft 456 kts 108°
2026-05-07 16:07 24.34389 55.52610 20853 ft 456 kts 108°
2026-05-07 16:07 24.33425 55.55924 20856 ft 457 kts 107°
2026-05-07 16:08 24.32461 55.59241 20857 ft 457 kts 107°
2026-05-07 16:08 24.31495 55.62558 20856 ft 457 kts 107°
2026-05-07 16:08 24.30529 55.65869 20856 ft 457 kts 107°
2026-05-07 16:08 24.29561 55.69190 20856 ft 457 kts 108°
2026-05-07 16:09 24.28591 55.72511 20856 ft 457 kts 108°
2026-05-07 16:09 24.27622 55.75826 20855 ft 457 kts 108°
2026-05-07 16:09 24.26653 55.79142 20856 ft 457 kts 107°
2026-05-07 16:09 24.25681 55.82459 20857 ft 458 kts 107°
2026-05-07 16:10 24.24708 55.85779 20856 ft 458 kts 107°
2026-05-07 16:10 24.23733 55.89106 20863 ft 458 kts 107°
2026-05-07 16:10 24.22758 55.92427 20864 ft 458 kts 107°
2026-05-07 16:10 24.21780 55.95753 20866 ft 458 kts 107°
2026-05-07 16:11 24.20803 55.99076 20868 ft 458 kts 107°
2026-05-07 16:11 24.19827 56.02393 20873 ft 458 kts 107°
2026-05-07 16:11 24.18847 56.05719 20874 ft 458 kts 107°
2026-05-07 16:11 24.17868 56.09041 20875 ft 458 kts 107°
2026-05-07 16:12 24.16888 56.12361 20878 ft 458 kts 107°
2026-05-07 16:12 24.15908 56.15677 20880 ft 458 kts 107°
2026-05-07 16:12 24.14925 56.19002 20877 ft 458 kts 108°
2026-05-07 16:12 24.13945 56.22315 20878 ft 458 kts 108°
2026-05-07 16:13 24.12962 56.25633 20878 ft 458 kts 107°
2026-05-07 16:13 24.11978 56.28953 20884 ft 458 kts 108°
2026-05-07 16:13 24.10993 56.32271 20881 ft 458 kts 107°
2026-05-07 16:13 24.10008 56.35590 20881 ft 459 kts 107°
2026-05-07 16:14 24.09021 56.38911 20883 ft 459 kts 107°
2026-05-07 16:14 24.08032 56.42235 20875 ft 459 kts 107°
2026-05-07 16:14 24.07319 56.44630 20873 ft 459 kts 107°
2026-05-07 16:35 24.06722 56.46639 20885 ft 459 kts 107°
2026-05-07 16:35 24.05732 56.49956 20883 ft 459 kts 107°
2026-05-07 16:35 24.04742 56.53275 20865 ft 459 kts 107°
2026-05-07 16:36 24.03750 56.56596 20866 ft 459 kts 107°
2026-05-07 16:36 24.02759 56.59913 20869 ft 459 kts 107°
2026-05-07 16:36 24.01765 56.63239 20854 ft 460 kts 107°
2026-05-07 16:36 24.00769 56.66564 20867 ft 461 kts 107°
2026-05-07 16:37 23.99770 56.69896 20867 ft 461 kts 107°
2026-05-07 16:37 23.98771 56.73226 20868 ft 461 kts 107°
2026-05-07 16:37 23.97770 56.76560 20848 ft 462 kts 107°
2026-05-07 16:37 23.96768 56.79895 20848 ft 461 kts 107°
2026-05-07 16:38 23.95765 56.83229 20848 ft 461 kts 107°
2026-05-07 16:38 23.94766 56.86552 20701 ft 458 kts 107°
2026-05-07 16:38 23.93782 56.89816 20543 ft 447 kts 107°
2026-05-07 16:38 23.92815 56.93023 20482 ft 430 kts 107°
2026-05-07 16:39 23.91882 56.96114 20065 ft 426 kts 107°
2026-05-07 16:39 23.90957 56.99179 19488 ft 423 kts 107°
2026-05-07 16:39 23.90038 57.02221 18881 ft 420 kts 107°
2026-05-07 16:39 23.89128 57.05229 18307 ft 416 kts 107°
2026-05-07 16:40 23.88224 57.08218 17628 ft 412 kts 107°
2026-05-07 16:40 23.87327 57.11177 17001 ft 407 kts 107°
2026-05-07 16:40 23.86445 57.14089 16411 ft 401 kts 107°
2026-05-07 16:40 23.85572 57.16965 15804 ft 396 kts 107°
2026-05-07 16:41 23.84712 57.19801 15207 ft 391 kts 107°
2026-05-07 16:41 23.83862 57.22599 14617 ft 385 kts 108°
2026-05-07 16:41 23.83025 57.25351 14174 ft 377 kts 108°
2026-05-07 16:41 23.82207 57.28039 13672 ft 370 kts 108°
2026-05-07 16:42 23.81400 57.30690 13072 ft 366 kts 108°
2026-05-07 16:42 23.80600 57.33316 12509 ft 364 kts 108°
2026-05-07 16:42 23.79798 57.35949 11919 ft 366 kts 108°
2026-05-07 16:42 23.79004 57.38551 11638 ft 353 kts 108°
2026-05-07 16:43 23.78246 57.41030 11509 ft 336 kts 108°
2026-05-07 16:43 23.77525 57.43391 11380 ft 320 kts 108°
2026-05-07 16:43 23.76836 57.45646 11259 ft 306 kts 108°
2026-05-07 16:43 23.76178 57.47798 11129 ft 293 kts 108°
2026-05-07 16:44 23.75545 57.49867 10997 ft 284 kts 108°
2026-05-07 16:44 23.74917 57.51918 10881 ft 284 kts 108°
2026-05-07 16:44 23.74291 57.53963 10686 ft 285 kts 108°
2026-05-07 16:44 23.73663 57.56014 10378 ft 285 kts 108°
2026-05-07 16:45 23.73035 57.58062 10054 ft 286 kts 108°
2026-05-07 16:45 23.72393 57.60153 9795 ft 300 kts 108°
2026-05-07 16:45 23.71717 57.62356 9664 ft 306 kts 108°
2026-05-07 16:45 23.71042 57.64552 9164 ft 306 kts 108°
2026-05-07 16:46 23.70366 57.66752 8698 ft 305 kts 108°
2026-05-07 16:46 23.69693 57.68943 8345 ft 305 kts 108°
2026-05-07 16:46 23.69018 57.71135 8002 ft 304 kts 108°
2026-05-07 16:46 23.68349 57.73310 7664 ft 302 kts 108°
2026-05-07 16:47 23.67680 57.75482 7329 ft 300 kts 108°
2026-05-07 16:47 23.67030 57.77588 6997 ft 284 kts 108°
2026-05-07 16:47 23.66418 57.79574 6689 ft 270 kts 108°
2026-05-07 16:47 23.65827 57.81490 6434 ft 264 kts 108°
2026-05-07 16:48 23.65246 57.83372 6148 ft 260 kts 108°
2026-05-07 16:48 23.64674 57.85226 5833 ft 257 kts 108°
2026-05-07 16:48 23.64107 57.87059 5526 ft 254 kts 108°
2026-05-07 16:48 23.63548 57.88868 5237 ft 250 kts 108°
2026-05-07 16:49 23.62998 57.90645 4961 ft 246 kts 108°
2026-05-07 16:49 23.62451 57.92413 4690 ft 245 kts 108°
2026-05-07 16:49 23.61909 57.94165 4422 ft 241 kts 108°
2026-05-07 16:49 23.61384 57.95859 4249 ft 231 kts 108°
2026-05-07 16:50 23.60878 57.97490 4074 ft 222 kts 107°
2026-05-07 16:50 23.60399 57.99034 4052 ft 209 kts 107°
2026-05-07 16:50 23.59936 58.00526 4053 ft 208 kts 108°
2026-05-07 16:50 23.59474 58.02019 4047 ft 208 kts 107°
2026-05-07 16:51 23.59052 58.03528 4041 ft 208 kts 99°
2026-05-07 16:51 23.58953 58.05080 3963 ft 201 kts 85°
2026-05-07 16:51 23.59058 58.06602 3626 ft 203 kts 83°
2026-05-07 16:51 23.59182 58.08135 3300 ft 202 kts 83°
2026-05-07 16:52 23.59303 58.09639 3074 ft 193 kts 83°
2026-05-07 16:52 23.59411 58.11054 2827 ft 182 kts 82°
2026-05-07 16:52 23.59512 58.12382 2651 ft 170 kts 82°
2026-05-07 16:52 23.59617 58.13660 2232 ft 171 kts 81°
2026-05-07 16:53 23.59730 58.14949 1836 ft 172 kts 82°
2026-05-07 16:53 23.59821 58.16209 1612 ft 161 kts 83°
2026-05-07 16:53 23.59913 58.17396 1410 ft 150 kts 82°
2026-05-07 16:53 23.60000 58.18517 1220 ft 147 kts 82°
2026-05-07 16:54 23.60091 58.19611 1038 ft 146 kts 83°
2026-05-07 16:54 23.60188 58.20709 858 ft 144 kts 83°
2026-05-07 16:54 23.60283 58.21823 715 ft 146 kts 84°
2026-05-07 16:54 23.60358 58.22931 555 ft 146 kts 85°
2026-05-07 16:55 23.60450 58.24028 392 ft 145 kts 85°
2026-05-07 16:55 23.60539 58.25133 215 ft 146 kts 87°
2026-05-07 16:55 23.60627 58.26236 44 ft 142 kts 85°
2026-05-07 16:55 23.60701 58.27159 47 ft 88 kts 85°
2026-05-07 16:56 23.60745 58.27679 43 ft 64 kts 84°
2026-05-07 16:56 23.60782 58.28141 42 ft 53 kts 85°
2026-05-07 16:56 23.60701 58.28481 44 ft 2 kts 144°
2026-05-07 16:57 23.60686 58.28488 44 ft 4 kts 154°
2026-05-07 16:57 23.60643 58.28485 44 ft 7 kts 198°